Location: Newark
(16.3678°N, 77.8722°E)
Time: 21:16:53
(UTC+00:00)

Tiros 1 - Pass Details

Date: 11 December 2019
Orbit: 630 x 664 km, 48.4° (Epoch: 19 January)

Event Time Altitude Azimuth Distance (km) Brightness Sun altitude
Rises 09:51:05 0° 287° (WNW) 2,904 10.9 29.2°
Reaches altitude 10° 09:54:51 10° 255° (WSW) 1,998 10.9 28.5°
Maximum altitude 09:56:33 12° 233° (SW) 1,876 11.4 28.2°
Drops below altitude 10° 09:58:15 10° 211° (SSW) 2,001 11.0 27.9°
Sets 10:02:04 0° 180° (S) 2,913 11.0 27.2°
